Theta_e
347 348 348 348 348 348 349 349 348 347 347 346 345 345 345 345 344 344 344 343 343 343 343 342 342 342 342 342 342 344 346 347 347 345 345 344 344 344 345 346 347 347
344 347 348 348 348 348 349 350 350 350 349 347 345 345 345 344 344 344 343 343 343 344 343 343 343 343 343 343 343 344 346 347 346 343 342 342 342 342 343 344 346 346
339 344 346 347 346 347 348 350 350 350 349 348 346 345 345 344 343 342 343 343 343 343 344 344 344 344 344 344 344 345 347 347 345 342 341 340 340 340 340 342 344 344
336 340 343 345 345 345 346 348 349 350 349 348 346 346 345 345 344 342 341 342 343 343 344 344 344 344 344 344 345 346 346 345 344 343 341 340 340 339 340 341 341 342
335 337 340 342 344 342 343 345 347 348 348 348 347 346 346 346 345 343 342 341 341 342 343 344 344 345 345 345 346 346 346 345 346 346 344 342 341 340 340 340 340 341
334 336 337 339 341 340 339 341 342 344 345 346 347 346 346 347 347 346 344 343 342 341 342 343 345 345 346 346 346 345 344 345 346 347 345 344 342 340 340 340 340 340
332 335 336 337 338 337 336 336 338 340 341 343 345 345 346 346 346 347 347 346 344 342 341 343 345 346 345 345 345 344 344 344 344 345 344 343 343 341 341 341 341 340
332 334 335 336 336 336 335 334 334 337 339 341 342 343 344 345 345 346 346 347 347 345 343 344 344 344 344 343 343 343 343 343 343 343 343 343 342 342 341 341 342 342
333 333 334 334 335 335 334 333 332 333 335 338 340 341 342 343 344 345 346 347 347 348 348 347 346 345 344 344 343 343 343 343 343 343 343 343 343 342 342 343 343 342
334 334 334 333 334 334 333 333 332 332 333 335 337 339 340 342 343 344 346 347 347 347 348 348 347 346 345 345 344 343 343 342 343 343 343 343 343 343 343 344 343 342
334 333 334 333 333 333 332 332 332 332 333 334 335 336 337 339 341 342 344 345 346 347 347 347 346 345 345 344 343 342 341 341 342 342 343 343 343 344 344 344 344 343
338 334 333 333 332 332 333 332 333 333 333 334 334 334 335 335 336 338 340 342 344 346 347 347 347 346 346 345 345 343 341 339 339 339 340 341 341 342 343 343 344 344
345 340 336 335 334 334 333 332 332 333 334 334 334 333 333 334 334 334 336 338 341 344 346 346 347 347 346 346 345 345 343 341 339 338 337 337 338 339 339 340 341 342
349 346 343 341 340 340 339 336 334 332 332 334 335 334 333 333 333 334 335 335 337 341 344 346 347 346 345 345 344 344 344 342 341 340 339 338 337 337 337 338 337 338
351 349 348 349 349 348 347 345 343 340 338 337 338 338 338 337 335 336 338 339 340 340 343 345 346 346 345 345 345 344 344 343 342 342 341 340 339 339 338 336 336 336
352 351 351 353 354 352 352 352 351 350 348 345 344 344 344 344 342 339 341 343 345 345 345 346 347 347 347 347 347 346 345 344 344 344 344 344 343 342 341 338 337 335
354 354 354 353 353 353 353 353 354 353 353 352 351 350 350 350 348 345 343 344 347 347 347 347 347 347 347 347 347 348 347 346 345 344 345 345 345 345 344 343 342 340
352 352 352 352 353 353 353 354 354 354 353 353 354 354 353 352 351 350 348 346 347 347 347 346 346 345 346 347 347 348 348 348 347 346 346 345 345 345 345 345 345 345
350 350 350 351 351 352 353 354 353 353 353 352 353 353 353 353 352 352 351 350 348 347 346 347 346 345 345 346 346 347 347 348 349 348 347 346 345 345 345 344 344 344
349 350 350 350 350 350 351 351 352 352 352 352 352 350 351 352 352 352 352 352 350 349 347 347 347 346 346 346 346 346 346 345 346 347 347 347 346 346 345 344 344 344
346 348 349 349 349 349 349 350 350 351 351 351 351 351 350 351 351 351 351 351 351 350 349 348 348 347 347 346 346 345 345 345 345 345 346 347 347 346 346 345 345 344
342 344 345 346 347 347 348 349 350 351 351 351 350 351 351 350 350 350 350 350 351 351 351 350 349 349 348 347 347 346 346 346 345 345 345 345 345 346 346 346 346 345
339 340 341 342 343 344 345 346 346 347 348 350 350 351 351 351 351 351 350 351 351 350 351 351 351 350 350 349 349 348 347 346 346 346 345 345 345 345 345 346 346 346
338 338 339 339 340 342 342 342 342 343 344 345 346 347 348 348 349 349 349 350 350 351 351 352 352 351 350 350 349 349 349 348 348 346 346 345 345 345 345 345 345 346
333 334 334 334 335 334 334 335 337 339 340 342 343 343 344 345 346 347 347 348 348 349 350 351 351 351 351 351 351 350 351 350 350 349 349 348 347 346 346 345 345 345
323 324 326 328 327 325 327 332 335 336 338 340 342 343 343 344 344 345 346 346 347 348 348 349 350 350 351 351 351 352 352 352 351 351 350 350 349 348 348 347 346 346
Wind_Speed
14 13 12 11 11 10 9 9 8 8 8 8 8 8 7 7 7 7 8 9 10 10 11 11 11 11 11 11 11 10 10 11 11 11 10 10 9 9 10 10 9 8
14 14 13 12 12 11 11 10 9 8 8 8 8 8 8 8 8 8 8 9 9 10 10 11 11 11 11 11 11 10 10 11 11 11 10 10 10 10 10 10 10 10
15 15 14 13 12 11 11 11 9 8 7 8 8 8 8 8 8 8 9 9 9 9 10 10 10 11 11 11 11 10 10 10 10 10 10 11 11 11 10 11 11 11
16 16 15 13 12 11 11 12 10 8 8 8 8 8 8 9 9 9 9 9 9 9 9 10 10 10 10 11 11 11 10 10 9 10 11 11 11 11 11 11 11 11
16 16 16 15 13 12 12 12 11 10 9 9 9 9 9 9 10 10 10 10 9 9 9 9 9 10 10 11 12 11 10 10 9 10 11 11 11 11 11 12 11 11
17 17 16 16 15 14 13 12 12 11 11 10 10 10 10 10 11 11 10 10 10 10 10 10 10 9 10 11 12 12 11 10 10 11 12 11 11 11 12 12 12 11
18 18 17 16 16 15 14 13 12 12 12 11 11 11 11 11 11 11 11 10 11 11 11 11 10 10 10 11 12 12 12 12 12 12 12 11 11 11 11 12 12 12
18 19 18 18 17 16 15 14 13 12 12 12 12 12 12 12 12 12 11 11 12 12 12 12 12 11 11 12 12 11 12 12 12 13 13 12 12 11 11 11 12 12
18 19 20 20 19 18 17 15 14 13 13 12 12 12 12 12 12 12 12 12 12 12 13 13 12 12 12 12 12 11 11 11 12 13 13 13 13 12 11 11 11 11
18 19 20 21 20 20 19 18 16 15 14 14 13 13 13 13 13 13 13 13 13 13 13 13 13 13 12 12 12 12 12 12 12 13 13 13 13 13 11 11 11 11
18 19 20 21 21 21 20 20 19 17 16 15 15 15 14 14 14 14 15 15 14 14 13 13 13 13 13 12 12 12 13 13 13 13 13 13 13 13 13 12 12 12
18 19 20 20 21 21 21 21 20 20 19 18 17 16 16 16 16 16 16 16 15 15 14 14 13 13 13 12 11 11 12 13 14 14 15 15 15 14 14 14 14 14
18 19 20 20 21 21 21 21 21 21 21 20 19 18 18 17 17 17 17 17 16 15 15 14 14 14 13 13 12 12 12 13 14 15 15 16 16 16 15 15 15 15
20 20 20 20 21 21 21 21 21 22 21 21 21 21 20 19 18 18 18 18 17 16 15 15 15 15 14 13 13 13 13 13 13 14 15 15 16 16 16 16 16 15
22 21 21 20 21 21 21 20 20 20 20 20 21 21 20 19 19 19 19 19 18 17 15 14 15 15 15 14 14 13 13 13 12 12 13 13 14 15 15 16 16 16
24 24 23 23 23 23 22 21 20 20 19 19 19 20 20 19 19 20 20 20 20 18 16 15 15 15 15 15 15 15 14 13 13 12 12 13 14 14 14 14 14 15
24 25 25 25 24 24 23 22 22 21 20 19 19 20 20 21 20 20 21 21 21 21 19 18 18 17 16 16 16 16 16 16 15 15 14 14 15 15 15 14 14 14
20 21 22 22 22 22 22 23 23 22 21 21 21 21 22 22 22 22 21 21 22 23 22 21 20 18 17 17 18 18 19 20 20 19 18 17 17 16 16 15 15 15
15 16 16 17 18 19 20 21 21 22 22 22 22 23 23 22 22 23 22 22 22 23 23 22 20 19 18 19 19 20 21 22 23 22 22 21 20 19 18 17 17 16
12 12 12 13 14 14 15 16 18 19 20 21 23 23 24 23 22 22 23 24 24 24 24 23 21 20 20 20 21 21 21 22 23 24 24 24 23 23 22 20 19 18
7 8 8 9 10 10 10 11 13 15 16 17 19 21 23 24 24 23 23 25 27 27 26 25 24 22 22 22 23 23 23 24 24 24 24 25 25 25 24 23 22 22
3 3 4 5 6 7 7 7 9 11 13 14 15 17 19 21 22 23 24 25 26 28 29 28 27 25 24 24 24 25 26 26 26 25 25 25 25 25 25 25 25 24
5 3 2 2 4 5 6 6 6 7 9 11 12 14 15 17 18 20 21 22 25 27 27 26 26 25 25 25 25 26 28 29 29 29 28 27 26 26 26 26 27 26
7 6 5 3 1 1 3 4 5 6 6 7 8 11 12 13 13 13 15 18 22 24 23 22 24 24 24 25 26 26 28 29 30 31 30 29 28 26 26 26 27 27
7 5 5 5 5 5 5 5 5 4 4 4 5 7 9 10 10 10 11 13 16 17 18 18 20 20 20 21 22 24 25 27 29 30 31 31 30 28 27 27 27 27
6 5 4 5 5 6 6 5 4 4 3 2 2 3 4 6 8 9 11 12 13 14 15 14 15 15 15 16 18 20 22 25 27 29 30 31 31 30 30 29 28 28
Wind_Direction
199 198 200 203 208 208 205 205 206 209 213 214 213 213 210 205 208 213 213 215 218 217 215 212 209 209 211 212 215 216 217 222 228 234 236 234 233 231 235 241 244 241
205 202 204 208 211 210 209 210 214 217 220 221 217 212 209 205 206 210 212 214 217 219 221 220 218 218 218 220 222 222 222 226 229 232 233 233 233 230 230 235 239 239
212 207 207 210 213 214 214 215 215 216 219 222 218 212 211 208 208 210 211 212 214 217 221 224 225 225 225 226 227 230 233 234 233 232 232 233 234 233 231 233 236 237
217 213 211 211 214 216 217 217 213 210 212 218 217 214 214 213 213 214 214 215 215 216 221 225 229 231 232 232 234 238 242 240 237 238 237 235 234 234 234 237 239 238
223 220 217 215 215 218 220 218 215 212 211 216 219 221 222 220 217 217 219 219 218 219 222 225 230 234 237 239 242 244 245 242 240 241 242 239 237 238 238 241 243 242
228 227 224 222 220 221 223 224 224 221 217 219 223 225 228 226 222 222 223 225 224 222 222 225 229 233 238 244 248 250 250 247 243 241 240 239 237 239 242 245 248 248
228 230 229 228 227 227 228 229 230 227 223 223 226 227 229 229 228 227 227 229 229 226 224 226 228 231 237 244 249 253 255 255 252 248 244 240 237 237 240 246 251 253
227 230 231 231 231 232 233 232 232 230 226 226 228 231 233 233 233 235 234 231 229 229 230 231 232 232 236 242 248 253 257 259 260 259 257 252 246 242 241 246 250 254
226 228 231 233 233 234 235 235 234 233 232 231 232 234 237 238 239 240 242 239 234 231 233 236 239 239 240 244 249 255 259 261 262 263 264 263 260 256 252 252 253 255
227 228 231 233 235 236 238 237 236 235 236 235 235 237 239 241 242 243 244 246 244 241 238 240 242 243 245 249 253 258 263 264 264 264 264 265 267 267 264 262 261 259
228 228 232 235 237 239 239 240 241 240 239 237 237 238 240 242 243 244 244 246 249 249 249 247 246 245 247 250 255 261 264 265 265 265 265 266 267 268 269 270 269 266
235 232 233 237 240 242 242 243 243 244 244 243 241 241 243 246 247 248 247 246 248 251 254 254 252 251 251 252 255 259 263 266 266 266 267 268 268 269 270 272 273 271
242 238 237 239 241 243 245 245 246 247 247 247 246 245 244 246 249 253 254 253 252 254 258 259 259 259 258 258 258 259 262 265 267 269 270 270 271 270 269 269 271 272
248 247 244 244 244 244 244 246 247 248 249 250 251 250 247 245 248 252 256 257 257 257 260 263 264 263 263 263 263 263 264 265 268 271 273 275 275 273 271 270 270 271
249 250 249 249 250 250 247 246 246 247 248 250 253 253 251 250 249 249 250 253 255 256 256 260 263 264 265 266 268 268 266 266 269 273 277 280 281 279 277 274 272 273
245 246 247 248 251 252 248 246 246 247 247 249 252 255 256 256 253 251 249 250 252 253 253 254 256 259 263 267 270 272 270 268 269 271 276 281 283 285 283 280 278 278
243 243 245 250 253 251 246 243 246 248 247 249 253 257 262 264 261 256 253 253 255 255 255 254 253 254 259 264 269 273 274 274 272 271 272 275 278 282 284 286 286 285
242 241 244 249 253 250 244 241 243 245 245 248 252 256 262 268 269 265 261 259 259 258 257 257 255 254 257 262 267 270 272 274 274 273 272 271 271 274 278 281 284 287
236 239 242 247 251 249 246 244 245 246 247 249 250 252 257 264 268 267 264 263 263 262 260 259 259 258 259 262 267 270 273 274 274 274 273 271 270 270 271 272 275 280
216 226 234 241 246 246 246 246 246 247 249 251 252 253 256 260 264 263 261 260 261 262 262 262 263 264 266 269 273 275 275 275 274 274 273 272 271 271 270 269 268 270
196 204 211 219 228 235 239 240 240 242 245 248 252 254 255 256 258 260 260 259 260 261 261 262 263 265 268 271 274 275 275 274 274 273 272 272 271 272 273 272 271 271
173 185 195 202 223 238 244 241 238 239 240 242 247 251 251 251 252 255 258 260 261 261 260 261 262 263 265 267 269 271 272 272 273 272 272 272 271 270 272 273 274 275
111 114 143 196 229 242 252 257 254 250 248 245 245 245 247 249 250 254 259 261 261 260 260 260 260 260 262 263 266 269 271 271 271 271 271 271 271 270 270 271 272 274
98 92 92 103 188 267 298 306 307 301 290 280 266 259 260 261 260 261 266 266 262 261 261 260 258 257 260 263 265 269 271 271 271 270 271 271 272 272 271 269 270 271
102 95 86 77 63 49 34 16 0 346 336 326 299 281 278 278 278 279 279 274 266 262 261 261 262 262 262 263 265 267 269 270 270 269 269 269 270 271 271 270 270 271
108 106 96 84 73 65 64 61 54 47 46 40 357 320 302 292 289 287 283 277 269 261 258 259 264 267 268 269 269 269 269 269 268 268 267 267 267 268 269 270 270 270